QPF
0.00 0.00 0.01 0.02 0.02 0.03 0.00 0.00 0.00 0.00 0.00 0.00 0.00 0.00 0.00 0.00 0.00 0.00 0.00 0.00 0.00 0.00 0.00 0.00 0.00 0.00 0.00 0.00 0.00 0.00 0.01 0.01 0.00
0.00 0.00 0.00 0.00 0.00 0.01 0.00 0.00 0.00 0.00 0.00 0.00 0.00 0.00 0.00 0.00 0.00 0.00 0.00 0.00 0.00 0.00 0.00 0.01 0.00 0.00 0.00 0.00 0.01 0.01 0.02 0.01 0.00
0.05 0.00 0.00 0.00 0.00 0.00 0.00 0.00 0.00 0.00 0.01 0.00 0.00 0.00 0.00 0.00 0.00 0.00 0.00 0.00 0.00 0.00 0.01 0.01 0.02 0.03 0.02 0.02 0.03 0.00 0.01 0.00 0.00
0.06 0.05 0.01 0.00 0.00 0.00 0.00 0.00 0.00 0.01 0.03 0.01 0.00 0.00 0.00 0.00 0.00 0.00 0.00 0.00 0.00 0.00 0.01 0.00 0.00 0.00 0.01 0.01 0.01 0.01 0.01 0.01 0.00
0.09 0.04 0.03 0.02 0.00 0.00 0.00 0.00 0.00 0.00 0.02 0.02 0.00 0.00 0.00 0.00 0.00 0.00 0.00 0.00 0.00 0.00 0.03 0.00 0.00 0.00 0.00 0.00 0.01 0.00 0.01 0.01 0.01
0.01 0.00 0.01 0.03 0.01 0.00 0.00 0.00 0.00 0.00 0.00 0.01 0.01 0.00 0.00 0.00 0.00 0.00 0.00 0.00 0.00 0.00 0.02 0.00 0.00 0.00 0.00 0.00 0.00 0.00 0.01 0.01 0.00
0.00 0.00 0.00 0.01 0.00 0.00 0.00 0.00 0.00 0.00 0.00 0.00 0.00 0.00 0.00 0.00 0.00 0.00 0.00 0.00 0.00 0.00 0.02 0.00 0.00 0.00 0.00 0.00 0.00 0.01 0.01 0.00 0.00
0.01 0.00 0.00 0.00 0.00 0.00 0.00 0.00 0.00 0.00 0.00 0.00 0.00 0.00 0.00 0.00 0.00 0.00 0.01 0.00 0.00 0.00 0.03 0.01 0.00 0.00 0.00 0.00 0.01 0.00 0.01 0.00 0.02
0.05 0.00 0.00 0.00 0.00 0.00 0.00 0.00 0.00 0.00 0.00 0.00 0.00 0.01 0.02 0.00 0.00 0.02 0.03 0.01 0.00 0.00 0.01 0.00 0.00 0.00 0.00 0.00 0.00 0.00 0.01 0.01 0.01
0.11 0.09 0.02 0.01 0.01 0.00 0.00 0.00 0.00 0.00 0.00 0.00 0.00 0.01 0.03 0.03 0.00 0.02 0.00 0.02 0.01 0.00 0.00 0.01 0.01 0.00 0.00 0.00 0.00 0.00 0.01 0.01 0.00
0.07 0.12 0.14 0.06 0.02 0.01 0.00 0.00 0.00 0.00 0.00 0.00 0.00 0.00 0.01 0.04 0.03 0.01 0.00 0.01 0.01 0.00 0.00 0.01 0.05 0.00 0.00 0.00 0.00 0.00 0.00 0.00 0.00
0.06 0.08 0.08 0.05 0.04 0.01 0.00 0.00 0.00 0.00 0.00 0.00 0.00 0.00 0.00 0.01 0.04 0.03 0.01 0.01 0.01 0.00 0.00 0.01 0.08 0.03 0.00 0.00 0.00 0.00 0.00 0.00 0.00
0.06 0.07 0.07 0.09 0.06 0.03 0.00 0.00 0.00 0.00 0.00 0.00 0.00 0.00 0.00 0.00 0.02 0.02 0.01 0.01 0.00 0.00 0.00 0.02 0.10 0.07 0.00 0.00 0.00 0.00 0.00 0.00 0.00
0.04 0.06 0.07 0.07 0.08 0.04 0.01 0.00 0.00 0.00 0.00 0.00 0.00 0.00 0.00 0.00 0.00 0.00 0.00 0.00 0.00 0.00 0.00 0.00 0.08 0.11 0.02 0.00 0.00 0.00 0.00 0.00 0.00
0.01 0.04 0.07 0.08 0.06 0.04 0.01 0.00 0.00 0.00 0.00 0.00 0.00 0.00 0.00 0.00 0.00 0.00 0.00 0.00 0.01 0.00 0.00 0.00 0.03 0.07 0.03 0.00 0.00 0.00 0.00 0.00 0.00
0.00 0.00 0.03 0.04 0.05 0.05 0.04 0.03 0.00 0.00 0.00 0.00 0.00 0.00 0.00 0.00 0.00 0.00 0.00 0.01 0.01 0.01 0.00 0.00 0.03 0.03 0.02 0.02 0.00 0.00 0.00 0.00 0.00
0.00 0.00 0.00 0.01 0.03 0.05 0.04 0.04 0.02 0.00 0.00 0.00 0.00 0.00 0.00 0.01 0.01 0.01 0.00 0.00 0.01 0.01 0.00 0.00 0.02 0.03 0.01 0.00 0.00 0.00 0.00 0.00 0.00
0.00 0.00 0.00 0.00 0.00 0.02 0.03 0.03 0.02 0.00 0.00 0.00 0.00 0.00 0.00 0.00 0.00 0.00 0.00 0.00 0.00 0.00 0.01 0.00 0.01 0.04 0.02 0.00 0.00 0.00 0.00 0.00 0.00
0.00 0.00 0.00 0.00 0.00 0.00 0.02 0.02 0.01 0.01 0.00 0.00 0.00 0.00 0.00 0.00 0.00 0.00 0.00 0.00 0.00 0.00 0.00 0.01 0.00 0.01 0.03 0.02 0.00 0.00 0.00 0.00 0.00
0.00 0.00 0.00 0.00 0.00 0.00 0.01 0.01 0.01 0.01 0.00 0.00 0.00 0.00 0.00 0.00 0.00 0.00 0.00 0.00 0.00 0.00 0.00 0.01 0.00 0.00 0.00 0.01 0.01 0.00 0.00 0.00 0.00
MSLP
1020.15 1020.27 1020.48 1020.61 1020.72 1020.78 1020.88 1021.02 1021.10 1021.18 1021.38 1021.49 1021.71 1021.97 1022.13 1022.22 1022.18 1022.28 1022.54 1022.51 1022.71 1022.80 1022.84 1022.88 1022.86 1022.81 1022.81 1023.01 1022.99 1023.05 1023.11 1023.21 1023.40
1020.36 1020.53 1020.64 1020.90 1021.08 1021.01 1021.16 1021.35 1021.45 1021.45 1021.54 1021.70 1021.88 1022.08 1022.28 1022.19 1022.35 1022.43 1022.60 1022.68 1022.86 1022.89 1022.92 1022.97 1023.06 1023.16 1023.26 1023.31 1023.37 1023.50 1023.47 1023.63 1023.80
1020.35 1020.69 1020.87 1020.95 1021.10 1021.25 1021.37 1021.59 1021.69 1021.68 1021.64 1021.75 1021.96 1022.11 1022.27 1022.39 1022.49 1022.61 1022.70 1022.95 1023.05 1023.08 1023.03 1023.13 1023.29 1023.44 1023.48 1023.63 1023.65 1023.90 1023.96 1024.11 1024.35
1020.33 1020.68 1020.88 1021.06 1021.20 1021.36 1021.54 1021.61 1021.76 1021.74 1021.70 1021.79 1022.09 1022.28 1022.40 1022.37 1022.52 1022.74 1022.82 1023.13 1023.17 1023.25 1023.29 1023.37 1023.52 1023.75 1023.86 1023.96 1024.04 1024.22 1024.37 1024.61 1024.80
1020.39 1020.65 1020.83 1021.04 1021.22 1021.33 1021.57 1021.75 1021.71 1021.78 1021.73 1021.97 1022.29 1022.58 1022.77 1022.60 1022.69 1022.83 1022.93 1023.17 1023.24 1023.38 1023.49 1023.62 1023.85 1024.01 1024.23 1024.34 1024.53 1024.51 1024.84 1024.92 1025.14
1020.30 1020.48 1020.66 1020.83 1021.08 1021.23 1021.28 1021.59 1021.90 1021.95 1022.01 1022.22 1022.44 1022.75 1022.72 1022.81 1022.89 1022.76 1023.06 1023.19 1023.32 1023.51 1023.66 1023.79 1024.07 1024.31 1024.47 1024.78 1024.84 1025.02 1025.24 1025.23 1025.54
1020.09 1020.35 1020.62 1020.78 1021.01 1021.20 1021.33 1021.25 1021.62 1021.99 1022.07 1022.24 1022.65 1022.59 1022.72 1022.79 1023.00 1023.00 1023.12 1023.18 1023.33 1023.57 1023.81 1023.98 1024.22 1024.50 1024.66 1024.86 1025.24 1025.37 1025.57 1025.56 1025.90
1020.03 1020.18 1020.48 1020.68 1020.87 1021.04 1021.26 1021.50 1021.44 1021.67 1021.91 1022.17 1022.24 1022.42 1022.63 1022.70 1022.87 1023.07 1023.17 1023.23 1023.35 1023.61 1023.95 1024.16 1024.43 1024.59 1024.79 1024.97 1025.32 1025.53 1025.73 1025.82 1026.11
1019.78 1019.88 1020.15 1020.35 1020.67 1020.84 1021.20 1021.44 1021.51 1021.65 1021.81 1021.99 1022.12 1022.21 1022.37 1022.60 1022.91 1022.97 1022.98 1023.11 1023.33 1023.61 1024.02 1024.17 1024.48 1024.61 1024.84 1025.15 1025.37 1025.60 1025.78 1026.01 1026.26
1019.69 1019.62 1019.86 1019.95 1020.28 1020.43 1020.91 1021.46 1021.66 1021.68 1021.74 1021.91 1022.05 1022.08 1022.13 1022.26 1022.64 1022.81 1023.01 1023.08 1023.25 1023.50 1023.89 1024.17 1024.41 1024.50 1024.75 1025.09 1025.45 1025.70 1025.91 1026.08 1026.36
1019.16 1019.24 1019.50 1019.61 1019.76 1020.23 1020.43 1020.79 1021.35 1021.70 1021.80 1021.78 1021.91 1021.91 1022.00 1022.29 1022.31 1022.61 1022.87 1023.12 1023.22 1023.41 1023.66 1023.94 1024.30 1024.42 1024.54 1025.00 1025.37 1025.62 1025.94 1026.13 1026.40
1018.21 1018.63 1018.95 1019.14 1019.37 1019.76 1020.16 1020.70 1021.14 1021.58 1021.87 1021.81 1021.92 1021.96 1021.87 1022.09 1022.04 1022.23 1022.58 1022.83 1023.13 1023.27 1023.44 1023.60 1024.07 1024.21 1024.43 1024.50 1025.07 1025.39 1025.83 1026.13 1026.42
1018.77 1017.74 1018.65 1018.83 1018.90 1019.35 1019.64 1020.21 1020.89 1021.25 1021.52 1021.66 1021.77 1021.87 1022.00 1021.94 1021.81 1021.95 1022.23 1022.47 1022.72 1023.06 1023.18 1023.32 1023.72 1024.02 1024.28 1024.60 1024.88 1025.37 1025.70 1026.06 1026.38
1021.16 1019.60 1018.48 1018.52 1018.71 1018.83 1019.21 1019.72 1020.17 1020.86 1021.28 1021.33 1021.47 1021.66 1021.71 1021.78 1021.81 1021.86 1021.93 1022.07 1022.32 1022.56 1022.77 1023.14 1023.42 1023.80 1024.03 1024.41 1024.83 1025.29 1025.66 1026.02 1026.30
1021.73 1021.06 1020.27 1018.90 1017.27 1018.41 1018.60 1019.05 1019.74 1020.11 1020.59 1021.06 1021.18 1021.32 1021.45 1021.53 1021.57 1021.53 1021.78 1021.85 1022.00 1022.16 1022.41 1022.77 1023.14 1023.58 1023.87 1024.13 1024.57 1025.07 1025.56 1025.95 1026.36
1022.63 1021.62 1020.66 1020.07 1019.27 1017.70 1018.17 1018.27 1019.00 1019.75 1020.16 1020.96 1021.16 1021.17 1021.14 1021.25 1021.29 1021.24 1021.37 1021.50 1021.68 1021.92 1022.01 1022.34 1022.64 1023.20 1023.65 1023.89 1024.24 1024.72 1025.24 1025.71 1026.18
1023.06 1022.34 1021.62 1021.02 1020.47 1019.18 1017.78 1017.95 1018.38 1018.79 1019.45 1019.68 1020.19 1020.51 1020.84 1020.67 1020.58 1020.80 1020.90 1021.04 1021.25 1021.48 1021.65 1021.93 1022.31 1022.52 1023.21 1023.56 1023.95 1024.41 1024.84 1025.29 1025.73
1023.62 1022.75 1022.01 1021.27 1021.12 1019.71 1018.93 1017.56 1017.59 1017.88 1018.49 1018.37 1018.41 1019.12 1019.03 1019.64 1019.99 1020.12 1020.22 1020.43 1020.73 1020.95 1021.27 1021.51 1021.87 1022.10 1022.48 1023.08 1023.55 1024.07 1024.49 1024.84 1025.17
1024.16 1023.34 1022.44 1021.44 1020.63 1020.07 1019.32 1018.07 1016.68 1016.84 1017.19 1017.99 1017.53 1017.76 1017.89 1018.48 1019.24 1019.63 1019.59 1019.86 1020.06 1020.37 1020.79 1021.10 1021.38 1021.80 1022.27 1022.70 1022.86 1023.47 1023.97 1024.43 1024.67
1024.25 1023.69 1023.12 1022.32 1021.58 1020.74 1020.03 1018.75 1016.98 1016.20 1016.35 1016.12 1016.74 1017.34 1017.63 1017.62 1017.95 1018.41 1019.05 1019.46 1019.63 1019.81 1020.07 1020.39 1020.74 1021.17 1021.66 1022.21 1022.46 1022.89 1023.30 1023.83 1024.22
Thickness
5698 5699 5700 5702 5703 5704 5706 5706 5709 5710 5710 5711 5711 5710 5711 5711 5711 5711 5709 5709 5707 5706 5706 5705 5704 5704 5703 5701 5700 5698 5697 5695 5692
5695 5694 5695 5696 5698 5699 5700 5702 5703 5706 5707 5707 5707 5708 5708 5708 5708 5708 5707 5706 5705 5705 5704 5703 5702 5701 5700 5698 5697 5695 5694 5692 5690
5693 5691 5690 5691 5693 5694 5695 5696 5698 5700 5703 5704 5704 5705 5705 5704 5704 5705 5705 5703 5702 5702 5702 5701 5700 5698 5697 5695 5694 5692 5690 5688 5684
5690 5688 5686 5686 5687 5690 5691 5692 5694 5697 5699 5700 5700 5701 5702 5701 5701 5701 5702 5700 5700 5699 5698 5698 5696 5695 5693 5692 5690 5689 5686 5683 5680
5685 5684 5684 5682 5683 5685 5686 5688 5690 5692 5695 5696 5696 5695 5695 5696 5697 5697 5698 5697 5696 5696 5695 5694 5692 5691 5689 5688 5686 5685 5682 5680 5677
5680 5681 5681 5681 5681 5681 5683 5684 5684 5686 5688 5689 5691 5690 5690 5691 5692 5694 5694 5693 5692 5692 5691 5691 5689 5687 5685 5683 5682 5679 5677 5677 5674
5677 5677 5676 5676 5677 5677 5677 5680 5681 5681 5682 5683 5684 5685 5686 5687 5687 5688 5689 5689 5689 5688 5687 5687 5685 5683 5682 5680 5677 5675 5673 5673 5669
5671 5672 5671 5671 5672 5673 5673 5673 5676 5677 5678 5678 5680 5682 5682 5683 5683 5684 5684 5685 5685 5684 5683 5682 5681 5679 5678 5676 5674 5672 5670 5669 5666
5667 5668 5668 5668 5667 5669 5670 5671 5672 5672 5673 5674 5675 5677 5679 5679 5679 5681 5682 5682 5681 5680 5678 5677 5676 5676 5675 5673 5671 5669 5668 5666 5663
5659 5662 5662 5664 5663 5665 5664 5664 5665 5667 5668 5669 5670 5671 5674 5675 5674 5676 5676 5677 5678 5676 5674 5673 5673 5673 5672 5670 5667 5665 5664 5662 5659
5655 5657 5657 5658 5660 5658 5659 5660 5658 5659 5660 5663 5664 5666 5669 5670 5671 5671 5671 5672 5673 5673 5672 5670 5669 5669 5669 5666 5664 5662 5660 5658 5656
5652 5654 5654 5655 5655 5653 5652 5652 5652 5652 5652 5655 5657 5659 5662 5664 5667 5667 5667 5668 5668 5669 5669 5668 5666 5665 5665 5666 5662 5660 5657 5654 5651
5633 5648 5645 5647 5649 5647 5648 5646 5645 5647 5648 5649 5650 5652 5654 5657 5660 5663 5663 5664 5664 5664 5665 5665 5663 5662 5661 5659 5658 5656 5653 5651 5647
5615 5629 5635 5637 5639 5642 5642 5641 5641 5639 5641 5643 5644 5645 5648 5650 5653 5656 5658 5660 5660 5660 5661 5661 5659 5658 5657 5655 5652 5650 5647 5645 5643
5598 5600 5610 5619 5634 5635 5639 5638 5635 5635 5635 5635 5638 5640 5641 5643 5648 5650 5651 5653 5655 5656 5655 5655 5654 5653 5651 5651 5648 5645 5642 5639 5636
5576 5590 5601 5604 5611 5631 5631 5631 5629 5626 5628 5624 5627 5631 5635 5637 5640 5643 5645 5647 5649 5650 5651 5650 5650 5648 5646 5645 5644 5641 5638 5635 5632
5558 5569 5579 5586 5593 5607 5622 5622 5623 5622 5620 5624 5623 5625 5627 5632 5637 5638 5641 5642 5642 5644 5645 5644 5645 5646 5642 5640 5639 5637 5635 5632 5630
5536 5548 5561 5568 5572 5587 5598 5614 5615 5617 5617 5623 5626 5621 5630 5630 5631 5635 5637 5639 5639 5639 5640 5640 5639 5641 5640 5638 5635 5632 5631 5629 5627
5515 5526 5539 5553 5563 5570 5581 5594 5612 5613 5616 5612 5622 5626 5630 5628 5624 5627 5633 5634 5635 5636 5635 5635 5635 5634 5634 5634 5634 5629 5628 5625 5623
5494 5504 5515 5528 5539 5550 5560 5572 5595 5605 5610 5615 5613 5614 5617 5623 5625 5625 5624 5626 5630 5632 5632 5632 5631 5631 5629 5629 5629 5627 5624 5622 5619